Date,TemperatureHighF,TemperatureAvgF,TemperatureLowF,DewpointHighF,DewpointAvgF,DewpointLowF,HumidityHigh,HumidityAvg,HumidityLow,PressureMaxIn,PressureMinIn,WindSpeedMaxMPH,WindSpeedAvgMPH,GustSpeedMaxMPH,PrecipitationSumIn
2013-9-1,89.5,77.4,69.5,74.2,69.1,61.9,95,77,55,29.95,29.67,7,0,14,0.16
2013-9-2,82.0,72.3,62.6,64.9,61.7,59.4,93,71,50,30.05,29.91,4,0,8,0.00
2013-9-3,87.3,71.0,55.2,63.3,58.7,54.2,97,70,36,30.10,29.96,4,0,7,0.00
2013-9-4,87.6,72.4,57.8,66.0,60.6,55.8,94,70,43,30.16,30.01,4,0,9,0.00
2013-9-5,90.0,74.9,60.3,66.2,63.0,59.2,96,70,43,30.18,30.04,4,0,8,0.00
2013-9-6,94.1,78.9,66.9,69.7,66.0,62.8,89,67,41,30.11,29.92,7,0,10,0.00
2013-9-7,100.6,83.9,69.4,72.6,68.8,64.8,86,63,36,29.98,29.81,6,0,9,0.00
2013-9-8,105.3,87.6,72.2,72.6,68.8,65.3,86,57,28,29.89,29.73,8,0,10,0.00
2013-9-9,98.7,84.9,74.3,68.7,65.3,60.6,76,54,31,29.93,29.79,7,0,13,0.00
2013-9-10,97.6,83.0,68.0,69.1,65.6,63.5,86,58,36,30.05,29.87,12,0,17,0.00
2013-9-11,97.9,82.4,68.8,67.9,64.2,60.0,83,57,32,30.11,29.94,2,0,2,0.00
2013-9-12,86.1,76.3,70.2,72.4,66.2,50.6,97,72,47,30.14,30.00,5,0,10,0.07
2013-9-13,76.5,67.4,56.2,54.8,51.2,48.7,86,58,40,30.18,30.01,12,0,12,0.00
2013-9-14,82.2,67.0,52.5,56.1,52.6,48.7,91,63,37,30.09,29.91,8,0,13,0.00
2013-9-15,88.9,72.3,63.7,69.4,61.3,54.1,95,69,48,30.13,29.88,8,1,10,0.26
2013-9-16,63.7,61.0,59.8,62.3,59.3,58.0,97,94,89,30.24,30.09,9,1,14,0.41
2013-9-17,74.6,66.8,60.6,72.0,64.9,59.8,99,94,81,30.17,29.91,15,0,15,0.57
2013-9-18,93.4,78.3,67.2,73.4,69.5,65.9,97,77,48,29.94,29.74,21,1,21,0.00
2013-9-19,95.3,79.3,67.3,74.2,68.9,66.2,97,73,44,29.88,29.66,20,1,20,1.13
2013-9-20,71.4,63.8,53.7,66.8,53.7,48.8,97,71,46,30.04,29.86,10,0,10,0.00
2013-9-21,79.3,62.5,47.7,56.0,51.3,46.1,97,71,36,30.04,29.87,4,0,6,0.00
2013-9-22,81.6,65.1,51.1,57.3,52.3,48.9,95,67,39,29.97,29.81,11,0,11,0.00
2013-9-23,81.1,67.0,54.1,57.9,54.0,50.1,88,65,37,29.89,29.71,10,1,17,0.00
2013-9-24,70.4,65.5,59.7,60.8,58.1,55.1,91,77,69,29.83,29.70,10,0,10,0.00
2013-9-25,83.1,67.9,54.5,65.4,60.3,52.5,96,78,53,29.88,29.75,5,0,6,0.00
2013-9-26,90.5,74.3,60.2,63.9,61.1,57.9,93,67,37,29.86,29.75,15,1,15,0.00
2013-9-27,91.0,77.1,67.3,65.9,62.1,59.7,81,62,37,29.90,29.77,19,1,19,0.00
2013-9-28,73.6,65.4,51.9,66.4,58.5,48.8,95,79,61,30.06,29.73,17,1,17,0.42
2013-9-29,77.8,57.7,45.3,57.5,50.3,43.7,97,79,38,30.09,29.91,7,0,7,0.00
2013-9-30,83.3,63.6,47.9,59.6,53.3,46.2,97,73,37,29.92,29.77,11,0,11,0.00